Homestead AFB, FL

9:36 AM EDT on September 15, 2019 (GMT -0400)
Dade County-Homestead Regional

Weather History for KHST - August, 2019

Change the Weather History Date:

Sunday, August 25, 2019

  Actual Average Record
Temperature  
Mean Temperature 83 °F -  
Max Temperature 92 °F 89 °F 96 °F (1931)
Min Temperature 76 °F 71 °F 67 °F (1944)
Cooling Degree Days 18    
Growing Degree Days 33 (Base 50)    
Moisture  
Dew Point 78 °F    
Average Humidity 85    
Maximum Humidity 97    
Minimum Humidity 64    
Precipitation  
Precipitation 0.08 in - - ()
Sea Level Pressure  
Sea Level Pressure 29.94 in    
Wind  
Wind Speed 5 mph (SSW)    
Max Wind Speed 18 mph    
Max Gust Speed 23 mph    
Visibility 10 miles    
Events Rain , Thunderstorm    
Averages and records for this station are not official NWS values.
T = Trace of Precipitation, MM = Missing Value Source: NWS Daily Summary

Daily Weather History Graph

Daily Weather History Graph

Search for Another Location

Airport or City:

Astronomy

Aug. 25, 2019 Rise Set
Actual Time 6:59 AM EDT 7:47 PM EDT
Civil Twilight 6:35 AM EDT 8:11 PM EDT
Nautical Twilight 6:07 AM EDT 8:39 PM EDT
Astronomical Twilight 5:39 AM EDT 9:07 PM EDT
Moon 1:50 AM EDT (8/25) 3:47 PM EDT (8/25)
Length of Visible Light 13h 35m
Length of Day
12h 48m
Waning Crescent, 29% of the Moon is Illuminated
Aug 25
Waning Crescent
Aug 30
New
Sep 5
First Quarter
Sep 14
Full
Sep 21
Last Quarter

Hourly Weather History & Observations

Time (EDT) Temp. Heat Index Dew Point Humidity Pressure Visibility Wind Dir Wind Speed Gust Speed Precip Events Conditions
12:56 AM 78.8 °F - 77.5 °F 96% 29.94 in 10.0 mi Calm Calm - N/A   Clear
2:56 AM 78.1 °F - 76.8 °F 96% 29.92 in 10.0 mi Calm Calm - N/A   Partly Cloudy
3:56 AM 78.1 °F - 77.2 °F 97% 29.91 in 10.0 mi Calm Calm - N/A   Clear
4:36 AM 78.8 °F - 77.0 °F 94% 29.91 in 10.0 mi Calm Calm - N/A   Mostly Cloudy
4:56 AM 79.2 °F - 77.2 °F 94% 29.91 in 10.0 mi South 3.5 mph - N/A   Mostly Cloudy
5:11 AM 78.8 °F - 77.0 °F 94% 29.91 in 10.0 mi Calm Calm - N/A   Overcast
5:16 AM 78.8 °F - 77.0 °F 94% 29.92 in 10.0 mi South 4.6 mph - N/A   Light Drizzle
5:21 AM 78.8 °F - 77.0 °F 94% 29.91 in 10.0 mi South 4.6 mph - N/A   Light Drizzle
5:25 AM 80.6 °F 87.1 °F 77.0 °F 89% 29.92 in 10.0 mi South 9.2 mph - N/A   Overcast
5:30 AM 80.6 °F 87.1 °F 77.0 °F 89% 29.91 in 10.0 mi South 9.2 mph - N/A Rain Light Rain
5:45 AM 78.8 °F - 75.2 °F 89% 29.92 in 10.0 mi South 9.2 mph - N/A Rain , Thunderstorm Light Rain
5:49 AM 78.8 °F - 77.0 °F 94% 29.92 in 10.0 mi South 8.1 mph - N/A Thunderstorm Mostly Cloudy
5:56 AM 78.8 °F - 76.3 °F 92% 29.91 in 10.0 mi South 5.8 mph - 0.01 in Thunderstorm Scattered Clouds
6:56 AM 76.6 °F - 74.1 °F 92% 29.92 in 10.0 mi SSW 3.5 mph - N/A   Mostly Cloudy
7:56 AM 78.4 °F - 76.1 °F 92% 29.94 in 10.0 mi South 3.5 mph - N/A   Scattered Clouds
8:56 AM 83.8 °F 95.5 °F 78.8 °F 85% 29.96 in 10.0 mi SSW 9.2 mph - N/A   Partly Cloudy
9:56 AM 85.6 °F 98.7 °F 79.0 °F 80% 29.97 in 10.0 mi SW 11.5 mph - N/A   Partly Cloudy
10:41 AM 87.8 °F 104.9 °F 80.6 °F 79% 29.97 in 10.0 mi SW 11.5 mph - N/A   Mostly Cloudy
10:51 AM 87.8 °F 102.5 °F 78.8 °F 75% 29.97 in 10.0 mi SSW 10.4 mph - N/A   Scattered Clouds
10:56 AM 87.4 °F 102.0 °F 79.2 °F 76% 29.97 in 10.0 mi SSW 13.8 mph - N/A   Mostly Cloudy
11:01 AM 87.8 °F 102.5 °F 78.8 °F 75% 29.97 in 10.0 mi SW 18.4 mph 23.0 mph N/A   Mostly Cloudy
11:06 AM 87.8 °F 99.7 °F 77.0 °F 70% 29.97 in 10.0 mi SSW 12.7 mph 23.0 mph N/A   Scattered Clouds
11:56 AM 89.4 °F 104.2 °F 78.6 °F 70% 29.97 in 10.0 mi SW 11.5 mph - N/A   Clear
12:45 PM 86.0 °F 99.3 °F 78.8 °F 79% 29.96 in 10.0 mi SSW 8.1 mph - N/A   Light Drizzle
12:47 PM 86.0 °F 99.3 °F 78.8 °F 79% 29.96 in 10.0 mi SSW 12.7 mph - N/A   Mostly Cloudy
12:52 PM 87.8 °F 102.5 °F 78.8 °F 75% 29.96 in 10.0 mi SSW 9.2 mph - N/A Thunderstorm Thunderstorm
12:56 PM 86.9 °F 100.9 °F 78.8 °F 77% 29.96 in 10.0 mi SSW 9.2 mph - 0.00 in Thunderstorm Thunderstorm
1:11 PM 86.0 °F 99.3 °F 78.8 °F 79% 29.96 in 10.0 mi SSW 6.9 mph - N/A Thunderstorm Thunderstorm
1:24 PM 86.0 °F 99.3 °F 78.8 °F 79% 29.96 in 10.0 mi South 6.9 mph - N/A Rain , Thunderstorm Light Thunderstorms and Rain
1:39 PM 82.4 °F 94.0 °F 80.6 °F 94% 29.97 in 10.0 mi SSE 6.9 mph - N/A Rain , Thunderstorm Light Thunderstorms and Rain
1:56 PM 83.5 °F 95.9 °F 79.9 °F 89% 29.95 in 10.0 mi South 4.6 mph - 0.01 in Rain , Thunderstorm Light Thunderstorms and Rain
2:00 PM 84.2 °F 98.3 °F 80.6 °F 89% 29.95 in 10.0 mi South 5.8 mph - N/A Thunderstorm Thunderstorm
2:05 PM 84.2 °F 98.3 °F 80.6 °F 89% 29.95 in 10.0 mi SSE 4.6 mph - N/A   Partly Cloudy
2:56 PM 89.4 °F 103.6 °F 78.3 °F 69% 29.93 in 10.0 mi SW 12.7 mph - 0.00 in   Scattered Clouds
3:56 PM 90.9 °F 104.3 °F 77.4 °F 64% 29.91 in 10.0 mi SW 11.5 mph - N/A   Partly Cloudy
4:56 PM 90.0 °F 101.9 °F 76.1 °F 64% 29.92 in 10.0 mi SSW 6.9 mph - N/A   Mostly Cloudy
4:58 PM 89.6 °F 102.2 °F 77.0 °F 66% 29.92 in 10.0 mi SSW 16.1 mph 23.0 mph N/A Thunderstorm Light Drizzle
5:11 PM 84.2 °F 96.1 °F 78.8 °F 84% 29.92 in 7.0 mi SSW 3.5 mph - N/A Rain , Thunderstorm Light Thunderstorms and Rain
5:20 PM 86.0 °F 99.3 °F 78.8 °F 79% 29.93 in 10.0 mi SSW 8.1 mph - N/A Thunderstorm Thunderstorm
5:56 PM 80.2 °F 86.0 °F 76.3 °F 88% 29.93 in 10.0 mi South 4.6 mph - 0.03 in Thunderstorm Thunderstorm
5:58 PM 80.6 °F 87.1 °F 77.0 °F 89% 29.93 in 10.0 mi South 4.6 mph - N/A Rain , Thunderstorm Light Thunderstorms and Rain
6:09 PM 78.8 °F - 77.0 °F 94% 29.92 in 6.0 mi SSE 5.8 mph - N/A Rain , Thunderstorm Light Rain
6:23 PM 80.6 °F 87.1 °F 77.0 °F 89% 29.92 in 10.0 mi South 4.6 mph - N/A   Mostly Cloudy
6:56 PM 82.8 °F 93.6 °F 79.2 °F 89% 29.91 in 10.0 mi Calm Calm - 0.03 in   Scattered Clouds
7:56 PM 83.1 °F 92.9 °F 77.7 °F 84% 29.92 in 10.0 mi SW 4.6 mph - N/A   Clear
8:56 PM 81.5 °F 89.7 °F 77.9 °F 89% 29.93 in 10.0 mi South 4.6 mph - N/A   Clear
9:56 PM 81.0 °F 88.6 °F 78.1 °F 91% 29.96 in 9.0 mi Calm Calm - N/A   Clear
10:56 PM 80.4 °F 87.5 °F 78.4 °F 94% 29.97 in 8.0 mi Calm Calm - N/A   Clear
11:56 PM 80.2 °F 87.0 °F 78.3 °F 94% 29.97 in 10.0 mi SSW 4.6 mph - N/A   Clear